TimeMST,TemperatureF,Dew PointF,Humidity,Sea Level PressureIn,VisibilityMPH,Wind Direction,Wind SpeedMPH,Gust SpeedMPH,PrecipitationIn,Events,Conditions,WindDirDegrees,DateUTC
12:48 AM,28.0,26.1,92,29.91,-9999.0,West,5.8,-,N/A,,Unknown,270,2013-02-04 07:48:00
1:48 AM,27.0,25.0,92,29.90,-9999.0,Calm,Calm,-,N/A,,Unknown,0,2013-02-04 08:48:00
4:48 AM,33.1,28.0,82,29.84,-9999.0,WNW,8.1,-,N/A,,Unknown,300,2013-02-04 11:48:00
5:48 AM,36.0,27.0,70,29.83,-9999.0,West,8.1,-,N/A,,Unknown,270,2013-02-04 12:48:00
6:48 AM,35.1,26.1,70,29.82,-9999.0,West,10.4,-,N/A,,Unknown,280,2013-02-04 13:48:00
7:48 AM,35.1,26.1,70,29.81,-9999.0,West,6.9,-,N/A,,Unknown,260,2013-02-04 14:48:00
8:48 AM,35.1,26.1,70,29.83,-9999.0,West,9.2,-,N/A,,Unknown,260,2013-02-04 15:48:00
9:48 AM,37.0,27.0,67,29.83,-9999.0,West,9.2,-,N/A,,Unknown,270,2013-02-04 16:48:00
10:48 AM,37.9,28.0,68,29.82,-9999.0,West,9.2,-,N/A,,Unknown,260,2013-02-04 17:48:00
11:48 AM,42.1,28.9,60,29.79,-9999.0,West,15.0,-,N/A,,Unknown,270,2013-02-04 18:48:00
12:48 PM,43.0,28.9,58,29.78,-9999.0,West,16.1,-,N/A,,Unknown,280,2013-02-04 19:48:00
1:48 PM,46.0,28.9,51,29.77,-9999.0,WNW,18.4,27.6,N/A,,Unknown,290,2013-02-04 20:48:00
2:48 PM,46.0,28.9,51,29.76,-9999.0,WNW,18.4,-,N/A,,Unknown,290,2013-02-04 21:48:00
3:48 PM,44.1,28.9,55,29.76,-9999.0,West,13.8,26.5,N/A,,Unknown,280,2013-02-04 22:48:00
4:48 PM,39.0,30.0,70,29.77,-9999.0,West,5.8,-,N/A,,Unknown,280,2013-02-04 23:48:00
5:48 PM,36.0,28.9,76,29.78,-9999.0,West,3.5,-,N/A,,Unknown,260,2013-02-05 00:48:00
6:48 PM,37.0,30.0,76,29.80,-9999.0,West,4.6,-,N/A,,Unknown,260,2013-02-05 01:48:00
7:48 PM,39.0,28.0,65,29.84,-9999.0,NW,10.4,-,N/A,,Unknown,310,2013-02-05 02:48:00
8:48 PM,37.0,28.0,70,29.87,-9999.0,NNW,9.2,-,N/A,,Unknown,330,2013-02-05 03:48:00
9:48 PM,35.1,28.0,76,29.89,-9999.0,NW,9.2,-,N/A,,Unknown,310,2013-02-05 04:48:00
10:48 PM,35.1,27.0,72,29.91,-9999.0,NW,10.4,-,N/A,,Unknown,320,2013-02-05 05:48:00
11:48 PM,33.1,25.0,72,29.93,-9999.0,NNW,6.9,-,N/A,,Unknown,330,2013-02-05 06:48:00